sat.trackr.live / text

‹ back to catalog

RCM-3

NORAD 44323 · 2019-033B

PAYLOAD ACTIVE UNKNOWN

§ Identity

Operator
Country
CA
Launch date
2019-06-12
Launch site
AFWTR
Launch vehicle
Mass (kg)
RCS (m²)

External: N2YO · Heavens-Above · Gunter

§ Orbital elements

Epoch: 2026-05-25T03:54:23.735808Z

Period
96.48 min
Inclination
97.7595°
Eccentricity
0.0001509
Mean motion
14.92588530 rev/d
Perigee alt
588.8 km
Apogee alt
590.9 km
Semi-major
6,968.0 km
B*
2.0900e-5
RAAN
153.0265°
Arg perigee
89.6900°
Mean anomaly
270.4492°
Rev number
37,866

§ Raw data

RCM-31 44323U 19033B   26145.16277472  .00000159  00000+0  20900-4 0  99952 44323  97.7595 153.0265 0001509  89.6900 270.4492 14.92588530378662

JSON: /api/v1/satellites/44323 · /tle

For live sub-satellite position, see the globe view (requires WebGL).

§ Visibility from observer

Set your observer location to see the next 7 days of passes ≥ 10°. The values pass through the URL so the page stays shareable.

No JS? Fill the form by hand. The geolocation button needs JavaScript.